| time (UTC) | temp C | wind direction | speed KPH | gust KPH | rain 1hr cm | rain 24hr cm | rain mn cm | humidity % | barometer mb |
| 20260508173027 | 18 | 77 | 3.2 | 17.7 | 0.00 | 0.20 | 0.03 | 79 | 1012.4 |
| 20260508172039 | 18 | 47 | 8.0 | 14.5 | 0.00 | 0.23 | 0.03 | 80 | 1012.3 |
| 20260508171027 | 18 | 54 | 6.4 | 12.9 | 0.00 | 0.23 | 0.03 | 78 | 1012.3 |
| 20260508170019 | 18 | 252 | 4.8 | 14.5 | 0.00 | 0.25 | 0.03 | 79 | 1012.4 |
| 20260508165028 | 18 | 180 | 4.8 | 12.9 | 0.00 | 0.28 | 0.03 | 79 | 1012.2 |
| 20260508164019 | 18 | 180 | 4.8 | 16.1 | 0.00 | 0.33 | 0.03 | 78 | 1011.9 |
| 20260508163048 | 19 | 104 | 8.0 | 16.1 | 0.00 | 0.36 | 0.03 | 78 | 1012.0 |
| 20260508162020 | 18 | 14 | 6.4 | 14.5 | 0.00 | 0.41 | 0.03 | 81 | 1011.6 |
| 20260508161047 | 19 | 50 | 9.7 | 17.7 | 0.00 | 0.46 | 0.03 | 79 | 1012.0 |
| 20260508160019 | 19 | 134 | 6.4 | 16.1 | 0.00 | 0.51 | 0.03 | 79 | 1012.1 |
| 20260508155047 | 18 | 204 | 6.4 | 16.1 | 0.00 | 0.53 | 0.03 | 82 | 1012.3 |
| 20260508154039 | 19 | 169 | 6.4 | 17.7 | 0.00 | 0.53 | 0.03 | 81 | 1012.3 |
| 20260508153031 | 18 | 179 | 6.4 | 12.9 | 0.00 | 0.56 | 0.03 | 84 | 1012.5 |
| 20260508152020 | 17 | 189 | 8.0 | 12.9 | 0.00 | 0.58 | 0.03 | 84 | 1012.8 |
| 20260508151028 | 17 | 196 | 8.0 | 14.5 | 0.00 | 0.61 | 0.03 | 83 | 1012.8 |
| 20260508150020 | 17 | 136 | 3.2 | 9.7 | 0.00 | 0.61 | 0.03 | 82 | 1012.7 |
| 20260508145027 | 17 | 195 | 8.0 | 16.1 | 0.00 | 0.61 | 0.03 | 81 | 1013.1 |
| 20260508144039 | 17 | 221 | 4.8 | 11.3 | 0.00 | 0.61 | 0.03 | 82 | 1013.1 |
| 20260508143028 | 17 | 37 | 6.4 | 12.9 | 0.00 | 0.61 | 0.03 | 81 | 1013.0 |
| 20260508142040 | 18 | 236 | 3.2 | 9.7 | 0.00 | 0.61 | 0.03 | 80 | 1013.2 |
| 20260508141028 | 18 | 258 | 4.8 | 11.3 | 0.00 | 0.61 | 0.03 | 80 | 1013.3 |
| 20260508140019 | 18 | 204 | 4.8 | 9.7 | 0.00 | 0.61 | 0.03 | 80 | 1013.1 |
| 20260508135027 | 18 | 288 | 4.8 | 9.7 | 0.00 | 0.61 | 0.03 | 81 | 1013.0 |
| 20260508134019 | 18 | 38 | 6.4 | 16.1 | 0.00 | 0.61 | 0.03 | 80 | 1013.0 |
| 20260508133027 | 18 | 178 | 8.0 | 17.7 | 0.00 | 0.61 | 0.03 | 79 | 1013.0 |
| 20260508132019 | 18 | 26 | 6.4 | 14.5 | 0.00 | 0.61 | 0.03 | 80 | 1012.8 |
| 20260508131044 | 18 | 15 | 6.4 | 14.5 | 0.00 | 0.61 | 0.03 | 81 | 1013.0 |
| 20260508130019 | 18 | 60 | 9.7 | 20.9 | 0.00 | 0.61 | 0.03 | 81 | 1012.9 |
| 20260508125027 | 18 | 65 | 9.7 | 22.5 | 0.00 | 0.61 | 0.03 | 81 | 1012.8 |
| 20260508124019 | 18 | 66 | 12.9 | 29.0 | 0.00 | 0.61 | 0.03 | 80 | 1012.8 |
| 20260508123027 | 18 | 63 | 9.7 | 20.9 | 0.00 | 0.61 | 0.03 | 75 | 1012.8 |
| 20260508122019 | 18 | 68 | 8.0 | 19.3 | 0.00 | 0.61 | 0.03 | 76 | 1012.9 |
| 20260508121027 | 18 | 63 | 11.3 | 20.9 | 0.00 | 0.61 | 0.03 | 77 | 1012.7 |
| 20260508120039 | 18 | 44 | 8.0 | 25.7 | 0.00 | 0.61 | 0.03 | 79 | 1012.7 |
| 20260508115027 | 18 | 52 | 8.0 | 19.3 | 0.00 | 0.61 | 0.03 | 78 | 1012.7 |
| 20260508114019 | 18 | 69 | 9.7 | 19.3 | 0.00 | 0.61 | 0.03 | 83 | 1012.9 |
| 20260508113047 | 18 | 66 | 9.7 | 19.3 | 0.00 | 0.61 | 0.03 | 80 | 1013.0 |
| 20260508112039 | 18 | 67 | 6.4 | 16.1 | 0.00 | 0.61 | 0.03 | 79 | 1013.1 |
| 20260508111027 | 18 | 45 | 4.8 | 9.7 | 0.00 | 0.61 | 0.03 | 79 | 1013.1 |
| 20260508110019 | 18 | 63 | 8.0 | 16.1 | 0.00 | 0.61 | 0.03 | 79 | 1013.1 |
| 20260508105027 | 18 | 67 | 6.4 | 14.5 | 0.00 | 0.61 | 0.03 | 81 | 1013.0 |
| 20260508104019 | 18 | 76 | 8.0 | 12.9 | 0.00 | 0.61 | 0.03 | 82 | 1012.9 |
| 20260508103027 | 18 | 168 | 4.8 | 11.3 | 0.00 | 0.61 | 0.03 | 83 | 1013.0 |
| 20260508102019 | 17 | 84 | 6.4 | 12.9 | 0.00 | 0.61 | 0.03 | 87 | 1013.0 |
| 20260508101028 | 17 | 69 | 6.4 | 14.5 | 0.00 | 0.61 | 0.03 | 87 | 1013.1 |
| 20260508100019 | 17 | 64 | 8.0 | 14.5 | 0.00 | 0.61 | 0.03 | 88 | 1013.2 |
| 20260508095047 | 17 | 73 | 8.0 | 11.3 | 0.00 | 0.61 | 0.03 | 88 | 1013.3 |
| 20260508094039 | 16 | 50 | 11.3 | 16.1 | 0.00 | 0.61 | 0.03 | 89 | 1013.3 |
| 20260508093027 | 16 | 59 | 9.7 | 16.1 | 0.00 | 0.61 | 0.03 | 90 | 1013.2 |
| 20260508092019 | 16 | 51 | 9.7 | 16.1 | 0.00 | 0.61 | 0.03 | 91 | 1013.2 |
| 20260508091027 | 16 | 57 | 9.7 | 14.5 | 0.00 | 0.61 | 0.03 | 91 | 1013.3 |
| 20260508090019 | 16 | 64 | 11.3 | 16.1 | 0.00 | 0.61 | 0.03 | 92 | 1013.0 |
| 20260508085029 | 15 | 51 | 11.3 | 19.3 | 0.00 | 0.61 | 0.03 | 93 | 1013.0 |
| 20260508084022 | 15 | 52 | 11.3 | 17.7 | 0.00 | 0.61 | 0.03 | 94 | 1012.7 |
| 20260508083027 | 15 | 52 | 11.3 | 16.1 | 0.00 | 0.61 | 0.03 | 94 | 1012.9 |
| 20260508082019 | 15 | 74 | 9.7 | 14.5 | 0.00 | 0.61 | 0.03 | 94 | 1013.1 |
| 20260508081028 | 15 | 61 | 11.3 | 16.1 | 0.00 | 0.61 | 0.03 | 95 | 1013.0 |
| 20260508080019 | 15 | 71 | 9.7 | 14.5 | 0.00 | 0.61 | 0.03 | 95 | 1012.9 |
| 20260508075027 | 15 | 79 | 9.7 | 16.1 | 0.00 | 0.61 | 0.03 | 96 | 1012.5 |
| 20260508074018 | 15 | 77 | 11.3 | 17.7 | 0.00 | 0.61 | 0.03 | 97 | 1012.6 |
| 20260508073127 | 15 | 59 | 6.4 | 12.9 | 0.00 | 0.61 | 0.03 | 97 | 1012.6 |
| 20260508072019 | 14 | 55 | 9.7 | 14.5 | 0.00 | 0.61 | 0.03 | 97 | 1012.6 |
| 20260508071047 | 13 | 57 | 6.4 | 9.7 | 0.00 | 0.61 | 0.03 | 97 | 1012.6 |
| 20260508070018 | 13 | 58 | 6.4 | 9.7 | 0.00 | 0.61 | 0.03 | 97 | 1012.5 |
| 20260508065027 | 13 | 57 | 6.4 | 11.3 | 0.00 | 0.61 | 0.03 | 97 | 1012.5 |
| 20260508064038 | 13 | 59 | 6.4 | 12.9 | 0.00 | 0.61 | 0.03 | 97 | 1012.4 |
| 20260508063026 | 13 | 65 | 8.0 | 14.5 | 0.00 | 0.61 | 0.03 | 97 | 1012.3 |
| 20260508062018 | 13 | 55 | 8.0 | 14.5 | 0.00 | 0.61 | 0.03 | 97 | 1012.1 |
| 20260508061027 | 13 | 62 | 6.4 | 12.9 | 0.00 | 0.61 | 0.03 | 97 | 1012.1 |
| 20260508060019 | 13 | 49 | 6.4 | 8.0 | 0.00 | 0.61 | 0.03 | 98 | 1012.1 |
| 20260508055027 | 13 | 35 | 6.4 | 11.3 | 0.00 | 0.61 | 0.03 | 97 | 1012.0 |
| 20260508054019 | 13 | 48 | 6.4 | 9.7 | 0.00 | 0.61 | 0.03 | 97 | 1011.8 |
| 20260508053027 | 13 | 45 | 6.4 | 9.7 | 0.00 | 0.61 | 0.03 | 97 | 1011.5 |
| 20260508052039 | 13 | 26 | 4.8 | 8.0 | 0.00 | 0.61 | 0.03 | 97 | 1011.4 |
| 20260508051027 | 13 | 67 | 1.6 | 3.2 | 0.00 | 0.61 | 0.03 | 97 | 1011.0 |
| 20260508050040 | 12 | 122 | 1.6 | 3.2 | 0.00 | 0.61 | 0.03 | 97 | 1010.9 |
| 20260508045027 | 13 | 70 | 1.6 | 6.4 | 0.00 | 0.61 | 0.03 | 97 | 1010.7 |
| 20260508044020 | 13 | 66 | 1.6 | 4.8 | 0.00 | 0.61 | 0.03 | 97 | 1010.6 |
| 20260508043027 | 13 | 67 | 4.8 | 8.0 | 0.00 | 0.61 | 0.03 | 97 | 1010.8 |
| 20260508042100 | 13 | 46 | 6.4 | 8.0 | 0.00 | 0.61 | 0.03 | 97 | 1010.6 |
| 20260508041028 | 13 | 34 | 8.0 | 12.9 | 0.00 | 0.61 | 0.03 | 97 | 1010.5 |
| 20260508040020 | 13 | 41 | 8.0 | 9.7 | 0.00 | 0.61 | 0.03 | 97 | 1010.5 |
| 20260508035027 | 13 | 43 | 8.0 | 11.3 | 0.00 | 0.61 | 0.03 | 97 | 1010.5 |
| 20260508034039 | 13 | 26 | 6.4 | 9.7 | 0.00 | 0.64 | 0.03 | 97 | 1010.6 |
| 20260508033027 | 13 | 46 | 4.8 | 9.7 | 0.00 | 0.64 | 0.03 | 97 | 1010.7 |
| 20260508032019 | 13 | 39 | 4.8 | 8.0 | 0.00 | 0.64 | 0.03 | 97 | 1010.9 |
| 20260508031047 | 13 | 50 | 4.8 | 9.7 | 0.00 | 0.64 | 0.03 | 97 | 1011.0 |
| 20260508030019 | 13 | 62 | 6.4 | 9.7 | 0.00 | 0.64 | 0.03 | 97 | 1010.8 |
| 20260508025027 | 13 | 56 | 6.4 | 11.3 | 0.00 | 0.64 | 0.03 | 97 | 1010.8 |
| 20260508024019 | 13 | 61 | 6.4 | 11.3 | 0.00 | 0.64 | 0.03 | 97 | 1010.7 |
| 20260508023035 | 13 | 40 | 6.4 | 9.7 | 0.00 | 0.64 | 0.03 | 97 | 1010.8 |
| 20260508022018 | 13 | 52 | 6.4 | 12.9 | 0.00 | 0.64 | 0.03 | 97 | 1010.6 |
| 20260508021027 | 13 | 54 | 8.0 | 12.9 | 0.00 | 0.64 | 0.03 | 97 | 1010.6 |
| 20260508020019 | 13 | 62 | 4.8 | 8.0 | 0.00 | 0.64 | 0.03 | 97 | 1010.6 |
| 20260508015047 | 13 | 67 | 3.2 | 8.0 | 0.00 | 0.64 | 0.03 | 97 | 1010.8 |
| 20260508014019 | 13 | 48 | 6.4 | 9.7 | 0.00 | 0.64 | 0.03 | 97 | 1010.9 |
| 20260508013027 | 13 | 60 | 6.4 | 8.0 | 0.00 | 0.64 | 0.03 | 97 | 1011.0 |
| 20260508012019 | 13 | 58 | 6.4 | 11.3 | 0.00 | 0.64 | 0.03 | 97 | 1011.0 |
| 20260508011027 | 13 | 70 | 9.7 | 12.9 | 0.03 | 0.64 | 0.03 | 97 | 1011.0 |
| 20260508010019 | 13 | 60 | 8.0 | 9.7 | 0.03 | 0.64 | 0.03 | 97 | 1011.3 |
| 20260508005027 | 13 | 54 | 8.0 | 11.3 | 0.03 | 0.64 | 0.03 | 97 | 1011.6 |
| 20260508004020 | 13 | 42 | 8.0 | 11.3 | 0.03 | 0.64 | 0.03 | 97 | 1011.6 |
| 20260508003028 | 13 | 38 | 6.4 | 9.7 | 0.05 | 0.64 | 0.03 | 97 | 1011.7 |
| 20260508002019 | 13 | 47 | 6.4 | 8.0 | 0.05 | 0.64 | 0.03 | 97 | 1011.7 |
| 20260508001027 | 13 | 54 | 4.8 | 9.7 | 0.03 | 0.61 | 0.00 | 97 | 1011.7 |
| 20260508000019 | 13 | 47 | 6.4 | 9.7 | 0.03 | 0.61 | 0.00 | 96 | 1011.7 |
| 20260507235047 | 13 | 49 | 8.0 | 11.3 | 0.03 | 0.61 | 0.61 | 96 | 1011.8 |
| 20260507234019 | 13 | 36 | 9.7 | 14.5 | 0.05 | 0.61 | 0.61 | 96 | 1012.0 |
| 20260507233027 | 13 | 33 | 9.7 | 14.5 | 0.05 | 0.58 | 0.58 | 96 | 1012.2 |
| 20260507232019 | 13 | 41 | 9.7 | 16.1 | 0.05 | 0.58 | 0.58 | 96 | 1012.2 |
| 20260507231047 | 13 | 48 | 9.7 | 12.9 | 0.05 | 0.58 | 0.58 | 96 | 1012.2 |
| 20260507230019 | 13 | 49 | 9.7 | 12.9 | 0.08 | 0.58 | 0.58 | 96 | 1012.3 |
| 20260507225027 | 13 | 58 | 6.4 | 14.5 | 0.08 | 0.58 | 0.58 | 96 | 1012.5 |
| 20260507224019 | 13 | 64 | 8.0 | 14.5 | 0.05 | 0.56 | 0.56 | 96 | 1012.6 |
| 20260507223027 | 13 | 66 | 9.7 | 16.1 | 0.03 | 0.53 | 0.53 | 96 | 1012.5 |
| 20260507222039 | 13 | 64 | 9.7 | 17.7 | 0.03 | 0.53 | 0.53 | 96 | 1012.5 |
| 20260507221027 | 13 | 57 | 11.3 | 17.7 | 0.03 | 0.53 | 0.53 | 96 | 1012.5 |
| 20260507220039 | 13 | 55 | 14.5 | 19.3 | 0.00 | 0.51 | 0.51 | 96 | 1012.3 |
| 20260507215027 | 13 | 50 | 11.3 | 19.3 | 0.00 | 0.51 | 0.51 | 96 | 1012.3 |
| 20260507214019 | 13 | 50 | 11.3 | 14.5 | 0.00 | 0.51 | 0.51 | 96 | 1012.3 |
| 20260507213027 | 13 | 44 | 9.7 | 14.5 | 0.00 | 0.51 | 0.51 | 96 | 1012.3 |
| 20260507212019 | 13 | 57 | 9.7 | 16.1 | 0.00 | 0.51 | 0.51 | 96 | 1012.2 |
| 20260507211027 | 13 | 48 | 9.7 | 14.5 | 0.00 | 0.51 | 0.51 | 96 | 1012.2 |
| 20260507210039 | 13 | 45 | 9.7 | 12.9 | 0.03 | 0.51 | 0.51 | 96 | 1012.4 |
| 20260507205047 | 13 | 34 | 9.7 | 14.5 | 0.03 | 0.51 | 0.51 | 96 | 1012.2 |
| 20260507204059 | 13 | 43 | 11.3 | 16.1 | 0.03 | 0.51 | 0.51 | 96 | 1012.1 |
| 20260507203030 | 13 | 42 | 12.9 | 17.7 | 0.03 | 0.51 | 0.51 | 96 | 1012.0 |
| 20260507202018 | 13 | 43 | 12.9 | 17.7 | 0.05 | 0.51 | 0.51 | 96 | 1012.0 |
| 20260507201207 | 13 | 42 | 11.3 | 17.7 | 0.05 | 0.51 | 0.51 | 96 | 1012.0 |
| 20260507200019 | 13 | 33 | 11.3 | 14.5 | 0.03 | 0.48 | 0.48 | 96 | 1011.9 |
| 20260507195028 | 13 | 34 | 8.0 | 12.9 | 0.03 | 0.48 | 0.48 | 96 | 1011.7 |
| 20260507194019 | 13 | 25 | 8.0 | 9.7 | 0.03 | 0.48 | 0.48 | 96 | 1011.7 |
| 20260507193047 | 13 | 32 | 9.7 | 14.5 | 0.03 | 0.48 | 0.48 | 96 | 1011.4 |
| 20260507192039 | 13 | 30 | 8.0 | 12.9 | 0.00 | 0.46 | 0.46 | 96 | 1011.5 |
| 20260507191027 | 13 | 31 | 9.7 | 16.1 | 0.00 | 0.46 | 0.46 | 95 | 1011.4 |
| 20260507190019 | 13 | 43 | 9.7 | 14.5 | 0.00 | 0.46 | 0.46 | 95 | 1011.3 |
| 20260507185027 | 13 | 53 | 9.7 | 16.1 | 0.03 | 0.46 | 0.46 | 95 | 1011.3 |
| 20260507184019 | 14 | 50 | 9.7 | 12.9 | 0.03 | 0.46 | 0.46 | 95 | 1011.2 |
| 20260507183042 | 13 | 68 | 6.4 | 9.7 | 0.03 | 0.46 | 0.46 | 95 | 1011.1 |
| 20260507182019 | 14 | 58 | 8.0 | 9.7 | 0.05 | 0.46 | 0.46 | 95 | 1010.8 |
| 20260507181027 | 14 | 64 | 6.4 | 11.3 | 0.05 | 0.46 | 0.46 | 95 | 1010.6 |
| 20260507180021 | 13 | 45 | 6.4 | 9.7 | 0.08 | 0.46 | 0.46 | 95 | 1010.5 |
| 20260507175027 | 13 | 58 | 8.0 | 11.3 | 0.08 | 0.43 | 0.43 | 94 | 1010.4 |
| 20260507174019 | 14 | 34 | 9.7 | 12.9 | 0.13 | 0.43 | 0.43 | 94 | 1010.4 |